Location: Baia Mare
(47.6567°N, 23.5850°E)
Time: 17:53:58
(UTC+03:00)

ISS - Pass Details

Date: 13 October 2018
Orbit: 403 x 408 km, 51.6° (Epoch: 17 October)

Event Time Altitude Azimuth Distance (km) Brightness Sun altitude
Rises 19:21:11 0° 287° (WNW) 2,337 1.6 -7.4°
Reaches altitude 10° 19:23:40 10° 269° (W) 1,472 0.8 -7.8°
Maximum altitude 19:26:04 19° 222° (SW) 1,051 -1.1 -8.2°
Drops below altitude 10° 19:28:27 10° 175° (S) 1,464 -1.0 -8.6°
Sets 19:30:55 0° 156° (SSE) 2,319 -0.2 -9.1°
